Location: Unspecified
(0.0000°N, 0.0000°E)
Time: 17:53:24
(UTC+02:00)

ATLAS 2AS CENTAUR R/B - Visible Passes

Search period start: 20 April 2014 00:00
Search period end: 30 April 2014 00:00
Orbit: 925 x 1287 km, 63.7° (Epoch: 17 April)

Date Brightness Start Highest point End Pass type
(mag) Time Alt. Az. Time Alt. Az. Time Alt. Az.
20 Apr 3.4 05:53:38 10° N 06:01:15 59° ENE 06:08:20 10° SE visible
21 Apr 4.3 05:09:45 10° N 05:16:32 33° ENE 05:22:54 10° SE visible
21 Apr 3.5 07:00:43 10° NW 07:07:13 31° WSW 07:13:20 10° S visible
22 Apr 5.1 04:26:55 10° NNE 04:31:44 18° ENE 04:36:21 10° ESE visible
22 Apr 2.9 06:15:06 10° NW 06:22:37 56° WSW 06:29:36 10° S visible
23 Apr 2.9 05:38:45 73° SE 05:38:45 73° SE 05:45:12 10° SSE visible
24 Apr 4.9 04:59:01 15° SE 04:59:01 15° SE 05:00:12 10° SE visible
24 Apr 4.2 06:46:40 17° SW 06:46:40 17° SW 06:49:03 10° SSW visible
25 Apr 4.8 06:05:37 11° S 06:05:37 11° S 06:05:53 10° S visible
